| time (UTC) | temp F | wind direction | speed MPH | gust MPH | rain 1hr in | rain 24hr in | rain mn in | humidity % | barometer mb |
| 20260831100002 | 0 | 0.0 | 0.0 | 0.00 | 0.00 | 0.00 | 1020.0 | ||
| 20260831095500 | 0 | 0.0 | 0.0 | 0.00 | 0.00 | 0.00 | 1020.0 | ||
| 20260831095000 | 0 | 0.0 | 0.0 | 0.00 | 0.00 | 0.00 | 1020.0 | ||
| 20260831094000 | 66 | 50 | 0.0 | 0.0 | 0.00 | 0.00 | 0.00 | 94 | 1020.0 |
| 20260831093501 | 66 | 50 | 0.0 | 0.0 | 0.00 | 0.00 | 0.00 | 94 | 1019.9 |
| 20260831093001 | 66 | 50 | 0.0 | 0.0 | 0.00 | 0.00 | 0.00 | 94 | 1019.9 |
| 20260831092500 | 66 | 50 | 0.0 | 0.0 | 0.00 | 0.00 | 0.00 | 94 | 1019.9 |
| 20260831092000 | 66 | 50 | 0.0 | 0.0 | 0.00 | 0.00 | 0.00 | 94 | 1019.8 |
| 20260831091501 | 66 | 50 | 0.0 | 0.0 | 0.00 | 0.00 | 0.00 | 94 | 1019.7 |
| 20260831091000 | 66 | 50 | 0.0 | 0.0 | 0.00 | 0.00 | 0.00 | 94 | 1019.6 |
| 20260831090500 | 66 | 50 | 0.0 | 0.0 | 0.00 | 0.00 | 0.00 | 94 | 1019.6 |
| 20260831090002 | 66 | 50 | 0.0 | 0.0 | 0.00 | 0.00 | 0.00 | 94 | 1019.4 |
| 20260831085501 | 66 | 50 | 0.0 | 0.0 | 0.00 | 0.00 | 0.00 | 94 | 1019.4 |
| 20260831085000 | 66 | 50 | 0.0 | 0.0 | 0.00 | 0.00 | 0.00 | 94 | 1019.5 |
| 20260831084501 | 66 | 50 | 0.0 | 0.0 | 0.00 | 0.00 | 0.00 | 94 | 1019.7 |
| 20260831084000 | 66 | 50 | 0.0 | 0.0 | 0.00 | 0.00 | 0.00 | 94 | 1019.6 |
| 20260831083500 | 66 | 50 | 0.0 | 0.0 | 0.00 | 0.00 | 0.00 | 93 | 1019.7 |
| 20260831083001 | 66 | 50 | 0.0 | 0.0 | 0.00 | 0.00 | 0.00 | 93 | 1019.7 |
| 20260831082500 | 66 | 50 | 0.0 | 0.0 | 0.00 | 0.00 | 0.00 | 93 | 1019.8 |
| 20260831081000 | 67 | 50 | 0.0 | 1.0 | 0.00 | 0.00 | 0.00 | 92 | 1019.8 |
| 20260831080500 | 67 | 50 | 0.0 | 0.0 | 0.00 | 0.00 | 0.00 | 91 | 1019.8 |
| 20260831075500 | 67 | 50 | 0.0 | 0.0 | 0.00 | 0.00 | 0.00 | 91 | 1019.7 |
| 20260831075000 | 68 | 50 | 0.0 | 0.0 | 0.00 | 0.00 | 0.00 | 91 | 1019.6 |
| 20260831074501 | 68 | 50 | 0.0 | 0.0 | 0.00 | 0.00 | 0.00 | 91 | 1019.8 |
| 20260831074000 | 68 | 50 | 0.0 | 0.0 | 0.00 | 0.00 | 0.00 | 90 | 1019.8 |
| 20260831073500 | 68 | 50 | 0.0 | 1.0 | 0.00 | 0.00 | 0.00 | 90 | 1019.9 |
| 20260831073001 | 68 | 50 | 0.0 | 1.0 | 0.00 | 0.00 | 0.00 | 90 | 1019.7 |
| 20260831072000 | 68 | 50 | 0.0 | 1.0 | 0.00 | 0.00 | 0.00 | 89 | 1019.7 |
| 20260831071501 | 69 | 50 | 0.0 | 2.0 | 0.00 | 0.00 | 0.00 | 89 | 1019.7 |
| 20260831071000 | 69 | 50 | 0.0 | 2.0 | 0.00 | 0.00 | 0.00 | 88 | 1019.7 |
| 20260831070500 | 69 | 50 | 0.0 | 2.0 | 0.00 | 0.00 | 0.00 | 88 | 1019.6 |
| 20260831070002 | 69 | 50 | 0.0 | 1.0 | 0.00 | 0.00 | 0.00 | 87 | 1019.6 |
| 20260831064501 | 70 | 50 | 0.0 | 1.0 | 0.00 | 0.00 | 0.00 | 86 | 1019.7 |
| 20260831064000 | 70 | 50 | 0.0 | 1.0 | 0.00 | 0.00 | 0.00 | 86 | 1019.6 |
| 20260831063500 | 70 | 50 | 0.0 | 2.0 | 0.00 | 0.00 | 0.00 | 86 | 1019.6 |
| 20260831063001 | 70 | 50 | 0.0 | 2.0 | 0.00 | 0.00 | 0.00 | 86 | 1019.6 |
| 20260831062500 | 70 | 50 | 1.0 | 5.0 | 0.00 | 0.00 | 0.00 | 86 | 1019.5 |
| 20260831062000 | 70 | 50 | 1.0 | 5.0 | 0.00 | 0.00 | 0.00 | 85 | 1019.4 |
| 20260831061000 | 70 | 50 | 1.0 | 5.0 | 0.00 | 0.00 | 0.00 | 86 | 1019.5 |
| 20260831060500 | 70 | 50 | 1.0 | 5.0 | 0.00 | 0.00 | 0.00 | 87 | 1019.6 |
| 20260831060002 | 70 | 50 | 0.0 | 1.0 | 0.00 | 0.00 | 0.00 | 88 | 1019.7 |
| 20260831055500 | 70 | 50 | 0.0 | 2.0 | 0.00 | 0.00 | 0.00 | 88 | 1019.7 |
| 20260831055000 | 70 | 50 | 0.0 | 3.0 | 0.00 | 0.00 | 0.00 | 87 | 1019.7 |
| 20260831054501 | 70 | 50 | 1.0 | 4.0 | 0.00 | 0.00 | 0.00 | 87 | 1019.7 |
| 20260831054000 | 70 | 50 | 2.0 | 4.0 | 0.00 | 0.00 | 0.00 | 87 | 1019.6 |
| 20260831053500 | 70 | 50 | 1.0 | 4.0 | 0.00 | 0.00 | 0.00 | 86 | 1019.6 |
| 20260831053001 | 70 | 50 | 1.0 | 3.0 | 0.00 | 0.00 | 0.00 | 86 | 1019.6 |
| 20260831052500 | 71 | 50 | 0.0 | 2.0 | 0.00 | 0.00 | 0.00 | 86 | 1019.5 |
| 20260831052000 | 71 | 50 | 0.0 | 1.0 | 0.00 | 0.00 | 0.00 | 85 | 1019.5 |
| 20260831051501 | 71 | 50 | 0.0 | 1.0 | 0.00 | 0.00 | 0.00 | 85 | 1019.5 |
| 20260831051000 | 72 | 50 | 0.0 | 1.0 | 0.00 | 0.00 | 0.00 | 84 | 1019.5 |
| 20260831050500 | 72 | 50 | 0.0 | 1.0 | 0.00 | 0.00 | 0.00 | 83 | 1019.5 |
| 20260831045000 | 72 | 50 | 0.0 | 0.0 | 0.00 | 0.00 | 0.00 | 81 | 1019.5 |
| 20260831044000 | 73 | 50 | 0.0 | 2.0 | 0.00 | 0.00 | 0.00 | 81 | 1019.8 |
| 20260831043500 | 73 | 50 | 1.0 | 2.0 | 0.00 | 0.00 | 0.00 | 80 | 1019.9 |
| 20260831043002 | 73 | 50 | 0.0 | 2.0 | 0.00 | 0.00 | 0.00 | 80 | 1019.8 |
| 20260831042500 | 73 | 50 | 1.0 | 4.0 | 0.00 | 0.00 | 0.00 | 80 | 1019.8 |
| 20260831042000 | 73 | 50 | 2.0 | 6.0 | 0.00 | 0.00 | 0.00 | 81 | 1019.8 |
| 20260831040500 | 72 | 50 | 0.0 | 2.0 | 0.00 | 0.00 | 0.00 | 81 | 1019.8 |
| 20260831035500 | 73 | 50 | 0.0 | 2.0 | 0.00 | 0.00 | 0.00 | 81 | 1020.0 |
| 20260831034000 | 73 | 50 | 1.0 | 3.0 | 0.00 | 0.00 | 0.00 | 80 | 1019.9 |
| 20260831033500 | 73 | 50 | 2.0 | 4.0 | 0.00 | 0.00 | 0.00 | 80 | 1019.9 |
| 20260831033001 | 73 | 50 | 2.0 | 4.0 | 0.00 | 0.00 | 0.00 | 80 | 1019.9 |
| 20260831032500 | 73 | 50 | 1.0 | 4.0 | 0.00 | 0.00 | 0.00 | 80 | 1020.0 |
| 20260831032000 | 73 | 50 | 1.0 | 3.0 | 0.00 | 0.00 | 0.00 | 80 | 1020.0 |
| 20260831031501 | 73 | 50 | 1.0 | 3.0 | 0.00 | 0.00 | 0.00 | 80 | 1020.0 |
| 20260831031000 | 73 | 50 | 1.0 | 3.0 | 0.00 | 0.00 | 0.00 | 80 | 1019.9 |
| 20260831030500 | 73 | 50 | 1.0 | 3.0 | 0.00 | 0.00 | 0.00 | 80 | 1019.9 |
| 20260831030001 | 73 | 50 | 2.0 | 4.0 | 0.00 | 0.00 | 0.00 | 80 | 1020.0 |
| 20260831025500 | 73 | 50 | 1.0 | 4.0 | 0.00 | 0.00 | 0.00 | 80 | 1020.0 |
| 20260831025000 | 74 | 50 | 1.0 | 4.0 | 0.00 | 0.00 | 0.00 | 80 | 1019.9 |
| 20260831024501 | 74 | 50 | 2.0 | 4.0 | 0.00 | 0.00 | 0.00 | 79 | 1019.9 |
| 20260831024000 | 74 | 50 | 2.0 | 4.0 | 0.00 | 0.00 | 0.00 | 79 | 1019.9 |
| 20260831023500 | 74 | 50 | 2.0 | 4.0 | 0.00 | 0.00 | 0.00 | 78 | 1019.9 |
| 20260831023001 | 74 | 50 | 2.0 | 4.0 | 0.00 | 0.00 | 0.00 | 79 | 1020.0 |
| 20260831022500 | 74 | 50 | 2.0 | 4.0 | 0.00 | 0.00 | 0.00 | 78 | 1019.9 |
| 20260831022000 | 74 | 50 | 3.0 | 6.0 | 0.00 | 0.00 | 0.00 | 78 | 1020.0 |
| 20260831021501 | 74 | 50 | 3.0 | 6.0 | 0.00 | 0.00 | 0.00 | 79 | 1020.1 |
| 20260831021000 | 74 | 50 | 2.0 | 5.0 | 0.00 | 0.00 | 0.00 | 79 | 1020.1 |
| 20260831020500 | 74 | 50 | 1.0 | 5.0 | 0.00 | 0.00 | 0.00 | 79 | 1020.0 |
| 20260831020003 | 74 | 50 | 1.0 | 5.0 | 0.00 | 0.00 | 0.00 | 79 | 1020.0 |
| 20260831015500 | 74 | 50 | 0.0 | 3.0 | 0.00 | 0.00 | 0.00 | 80 | 1019.9 |
| 20260831015000 | 73 | 50 | 1.0 | 3.0 | 0.00 | 0.00 | 0.00 | 80 | 1019.9 |
| 20260831014501 | 73 | 50 | 1.0 | 3.0 | 0.00 | 0.00 | 0.00 | 82 | 1019.9 |
| 20260831014000 | 73 | 50 | 0.0 | 3.0 | 0.00 | 0.00 | 0.00 | 83 | 1020.0 |
| 20260831013500 | 74 | 50 | 0.0 | 0.0 | 0.00 | 0.00 | 0.00 | 82 | 1019.9 |
| 20260831013001 | 74 | 50 | 0.0 | 1.0 | 0.00 | 0.00 | 0.00 | 81 | 1019.7 |
| 20260831012000 | 73 | 50 | 0.0 | 2.0 | 0.00 | 0.00 | 0.00 | 82 | 1019.8 |
| 20260831011501 | 73 | 50 | 0.0 | 2.0 | 0.00 | 0.00 | 0.00 | 83 | 1019.9 |
| 20260831011000 | 73 | 50 | 0.0 | 3.0 | 0.00 | 0.00 | 0.00 | 85 | 1019.8 |
| 20260831005500 | 72 | 50 | 0.0 | 0.0 | 0.00 | 0.00 | 0.00 | 92 | 1019.6 |
| 20260831005000 | 72 | 50 | 0.0 | 0.0 | 0.00 | 0.00 | 0.00 | 92 | 1019.6 |
| 20260831004501 | 72 | 50 | 0.0 | 0.0 | 0.00 | 0.00 | 0.00 | 92 | 1019.6 |
| 20260831003500 | 73 | 50 | 0.0 | 0.0 | 0.00 | 0.00 | 0.00 | 92 | 1019.3 |
| 20260831003001 | 73 | 50 | 0.0 | 0.0 | 0.00 | 0.00 | 0.00 | 92 | 1019.2 |
| 20260831002500 | 73 | 50 | 0.0 | 0.0 | 0.00 | 0.00 | 0.00 | 92 | 1019.0 |
| 20260831002000 | 73 | 50 | 0.0 | 0.0 | 0.00 | 0.00 | 0.00 | 92 | 1019.0 |
| 20260831001501 | 73 | 50 | 0.0 | 0.0 | 0.00 | 0.00 | 0.00 | 91 | 1018.9 |
| 20260831001000 | 73 | 50 | 0.0 | 0.0 | 0.00 | 0.00 | 0.00 | 91 | 1019.0 |
| 20260831000500 | 74 | 50 | 0.0 | 0.0 | 0.00 | 0.00 | 0.00 | 91 | 1018.9 |
| 20260831000001 | 74 | 50 | 0.0 | 0.0 | 0.00 | 0.00 | 0.00 | 91 | 1018.9 |
| 20260830235500 | 74 | 50 | 0.0 | 0.0 | 0.00 | 0.00 | 0.00 | 90 | 1018.9 |
| 20260830235000 | 74 | 50 | 0.0 | 0.0 | 0.00 | 0.00 | 0.00 | 90 | 1018.9 |
| 20260830234501 | 74 | 50 | 0.0 | 0.0 | 0.00 | 0.00 | 0.00 | 89 | 1018.9 |
| 20260830233500 | 75 | 50 | 0.0 | 0.0 | 0.00 | 0.00 | 0.00 | 89 | 1018.8 |
| 20260830232500 | 75 | 50 | 0.0 | 0.0 | 0.00 | 0.00 | 0.00 | 88 | 1018.8 |
| 20260830231501 | 75 | 50 | 0.0 | 0.0 | 0.00 | 0.00 | 0.00 | 87 | 1018.8 |
| 20260830231000 | 75 | 50 | 0.0 | 0.0 | 0.00 | 0.00 | 0.00 | 87 | 1018.8 |
| 20260830230500 | 75 | 50 | 0.0 | 0.0 | 0.00 | 0.00 | 0.00 | 87 | 1018.8 |
| 20260830230001 | 75 | 50 | 0.0 | 0.0 | 0.00 | 0.00 | 0.00 | 87 | 1018.8 |
| 20260830225501 | 76 | 247 | 0.0 | 0.0 | 0.00 | 0.00 | 0.00 | 87 | 1018.9 |
| 20260830225000 | 76 | 50 | 0.0 | 0.0 | 0.00 | 0.00 | 0.00 | 87 | 1018.8 |
| 20260830224501 | 76 | 247 | 0.0 | 0.0 | 0.00 | 0.00 | 0.00 | 85 | 1018.8 |
| 20260830224000 | 77 | 247 | 0.0 | 0.0 | 0.00 | 0.00 | 0.00 | 84 | 1018.8 |
| 20260830223500 | 77 | 247 | 0.0 | 1.0 | 0.00 | 0.00 | 0.00 | 84 | 1018.8 |
| 20260830222500 | 77 | 247 | 0.0 | 1.0 | 0.00 | 0.00 | 0.00 | 82 | 1018.8 |
| 20260830222000 | 78 | 247 | 1.0 | 3.0 | 0.00 | 0.00 | 0.00 | 82 | 1018.8 |
| 20260830221501 | 78 | 247 | 2.0 | 4.0 | 0.00 | 0.00 | 0.00 | 82 | 1018.8 |
| 20260830221000 | 78 | 247 | 3.0 | 4.0 | 0.00 | 0.00 | 0.00 | 80 | 1018.8 |
| 20260830220500 | 78 | 248 | 3.0 | 5.0 | 0.00 | 0.00 | 0.00 | 81 | 1018.8 |
| 20260830220002 | 78 | 248 | 3.0 | 5.0 | 0.00 | 0.00 | 0.00 | 79 | 1018.6 |
| 20260830215000 | 79 | 242 | 3.0 | 5.0 | 0.00 | 0.00 | 0.00 | 80 | 1018.6 |
| 20260830214000 | 79 | 236 | 2.0 | 5.0 | 0.00 | 0.00 | 0.00 | 79 | 1018.7 |
| 20260830213500 | 79 | 228 | 3.0 | 6.0 | 0.00 | 0.00 | 0.00 | 80 | 1018.6 |
| 20260830213001 | 79 | 256 | 4.0 | 6.0 | 0.00 | 0.00 | 0.00 | 78 | 1018.7 |
| 20260830212000 | 79 | 236 | 4.0 | 8.0 | 0.00 | 0.00 | 0.00 | 79 | 1018.8 |
| 20260830211501 | 79 | 257 | 4.0 | 8.0 | 0.00 | 0.00 | 0.00 | 80 | 1018.8 |
| 20260830211000 | 79 | 228 | 4.0 | 8.0 | 0.00 | 0.00 | 0.00 | 80 | 1018.8 |
| 20260830210001 | 79 | 244 | 5.0 | 8.0 | 0.00 | 0.00 | 0.00 | 79 | 1018.6 |
| 20260830205500 | 78 | 251 | 5.0 | 9.0 | 0.00 | 0.00 | 0.00 | 80 | 1018.6 |
| 20260830205000 | 78 | 229 | 4.0 | 9.0 | 0.00 | 0.00 | 0.00 | 80 | 1018.6 |
| 20260830204000 | 78 | 238 | 3.0 | 7.0 | 0.00 | 0.00 | 0.00 | 82 | 1018.7 |
| 20260830203500 | 78 | 238 | 4.0 | 7.0 | 0.00 | 0.00 | 0.00 | 80 | 1018.8 |
| 20260830203000 | 78 | 231 | 4.0 | 7.0 | 0.00 | 0.00 | 0.00 | 79 | 1018.7 |
| 20260830202500 | 78 | 203 | 4.0 | 7.0 | 0.00 | 0.00 | 0.00 | 80 | 1018.8 |
| 20260830201501 | 78 | 217 | 5.0 | 10.0 | 0.00 | 0.00 | 0.00 | 80 | 1019.1 |
| 20260830201000 | 79 | 205 | 5.0 | 10.0 | 0.00 | 0.00 | 0.00 | 80 | 1019.1 |
| 20260830195500 | 79 | 179 | 7.0 | 11.0 | 0.00 | 0.00 | 0.00 | 79 | 1019.2 |
| 20260830195000 | 79 | 237 | 6.0 | 11.0 | 0.00 | 0.00 | 0.00 | 78 | 1019.2 |
| 20260830194000 | 79 | 193 | 7.0 | 12.0 | 0.00 | 0.00 | 0.00 | 78 | 1019.1 |
| 20260830193500 | 79 | 241 | 7.0 | 10.0 | 0.00 | 0.00 | 0.00 | 79 | 1019.1 |
| 20260830193002 | 79 | 237 | 6.0 | 11.0 | 0.00 | 0.00 | 0.00 | 78 | 1019.1 |
| 20260830192500 | 79 | 241 | 6.0 | 11.0 | 0.00 | 0.00 | 0.00 | 79 | 1019.2 |
| 20260830191501 | 78 | 204 | 7.0 | 12.0 | 0.00 | 0.00 | 0.00 | 80 | 1019.5 |
| 20260830191000 | 78 | 265 | 6.0 | 11.0 | 0.00 | 0.00 | 0.00 | 81 | 1019.7 |
| 20260830190500 | 78 | 236 | 5.0 | 11.0 | 0.00 | 0.00 | 0.00 | 79 | 1019.8 |
| 20260830185500 | 79 | 240 | 5.0 | 9.0 | 0.00 | 0.00 | 0.00 | 82 | 1019.9 |
| 20260830185001 | 78 | 223 | 6.0 | 12.0 | 0.00 | 0.00 | 0.00 | 81 | 1020.0 |
| 20260830184501 | 77 | 203 | 7.0 | 12.0 | 0.00 | 0.00 | 0.00 | 80 | 1020.0 |
| 20260830184000 | 77 | 253 | 7.0 | 14.0 | 0.00 | 0.00 | 0.00 | 82 | 1020.1 |
| 20260830183500 | 77 | 237 | 7.0 | 13.0 | 0.00 | 0.00 | 0.00 | 82 | 1020.1 |
| 20260830182500 | 77 | 240 | 8.0 | 14.0 | 0.00 | 0.00 | 0.00 | 85 | 1020.5 |
| 20260830182000 | 76 | 239 | 7.0 | 14.0 | 0.00 | 0.00 | 0.00 | 86 | 1020.5 |
| 20260830181501 | 76 | 243 | 6.0 | 14.0 | 0.00 | 0.00 | 0.00 | 85 | 1020.5 |
| 20260830181000 | 76 | 269 | 5.0 | 12.0 | 0.00 | 0.00 | 0.00 | 87 | 1020.5 |
| 20260830180500 | 76 | 230 | 6.0 | 13.0 | 0.00 | 0.00 | 0.00 | 87 | 1020.6 |
| 20260830175459 | 75 | 232 | 7.0 | 12.0 | 0.00 | 0.00 | 0.00 | 87 | 1020.7 |
| 20260830175000 | 74 | 282 | 8.0 | 13.0 | 0.00 | 0.00 | 0.00 | 88 | 1020.6 |
| 20260830174500 | 74 | 261 | 9.0 | 13.0 | 0.00 | 0.00 | 0.00 | 89 | 1020.7 |
| 20260830174000 | 74 | 259 | 7.0 | 13.0 | 0.00 | 0.00 | 0.00 | 87 | 1020.8 |
| 20260830173001 | 74 | 225 | 5.0 | 9.0 | 0.00 | 0.00 | 0.00 | 90 | 1021.0 |
| 20260830172000 | 73 | 240 | 6.0 | 11.0 | 0.00 | 0.00 | 0.00 | 91 | 1021.1 |
| 20260830171000 | 72 | 201 | 6.0 | 12.0 | 0.00 | 0.00 | 0.00 | 90 | 1021.3 |
| 20260830170500 | 72 | 270 | 6.0 | 10.0 | 0.00 | 0.00 | 0.00 | 91 | 1021.3 |
| 20260830170001 | 71 | 213 | 6.0 | 11.0 | 0.00 | 0.00 | 0.00 | 91 | 1021.3 |
| 20260830165500 | 71 | 230 | 7.0 | 11.0 | 0.00 | 0.00 | 0.00 | 91 | 1021.3 |
| 20260830164959 | 71 | 267 | 6.0 | 11.0 | 0.00 | 0.00 | 0.00 | 90 | 1021.3 |
| 20260830164501 | 71 | 243 | 5.0 | 10.0 | 0.00 | 0.00 | 0.00 | 92 | 1021.3 |
| 20260830163500 | 71 | 262 | 4.0 | 9.0 | 0.00 | 0.00 | 0.00 | 93 | 1021.1 |
| 20260830163003 | 70 | 227 | 5.0 | 11.0 | 0.00 | 0.00 | 0.00 | 92 | 1021.1 |
| 20260830162500 | 70 | 198 | 5.0 | 11.0 | 0.00 | 0.00 | 0.00 | 91 | 1021.1 |
| 20260830162000 | 70 | 200 | 5.0 | 9.0 | 0.00 | 0.00 | 0.00 | 92 | 1021.3 |
| 20260830161501 | 70 | 231 | 5.0 | 10.0 | 0.00 | 0.00 | 0.00 | 92 | 1021.3 |
| 20260830161000 | 70 | 210 | 4.0 | 10.0 | 0.00 | 0.00 | 0.00 | 91 | 1021.4 |
| 20260830160459 | 70 | 278 | 2.0 | 7.0 | 0.00 | 0.00 | 0.00 | 91 | 1021.5 |
| 20260830160001 | 70 | 182 | 1.0 | 5.0 | 0.00 | 0.00 | 0.00 | 92 | 1021.5 |
| 20260830155500 | 69 | 50 | 1.0 | 4.0 | 0.00 | 0.00 | 0.00 | 92 | 1021.6 |
| 20260830155000 | 69 | 223 | 0.0 | 2.0 | 0.00 | 0.00 | 0.00 | 92 | 1021.7 |
| 20260830154501 | 68 | 50 | 0.0 | 3.0 | 0.00 | 0.00 | 0.00 | 92 | 1021.8 |
| 20260830154000 | 68 | 50 | 0.0 | 3.0 | 0.00 | 0.00 | 0.00 | 92 | 1022.0 |
| 20260830153500 | 67 | 50 | 0.0 | 0.0 | 0.00 | 0.00 | 0.00 | 92 | 1022.0 |
| 20260830152459 | 67 | 50 | 0.0 | 0.0 | 0.00 | 0.00 | 0.00 | 91 | 1022.1 |
| 20260830152000 | 67 | 50 | 0.0 | 0.0 | 0.00 | 0.00 | 0.00 | 92 | 1022.1 |
| 20260830151000 | 66 | 50 | 0.0 | 0.0 | 0.00 | 0.00 | 0.00 | 92 | 1022.0 |
| 20260830150500 | 66 | 50 | 0.0 | 0.0 | 0.00 | 0.00 | 0.00 | 91 | 1022.1 |
| 20260830150001 | 66 | 50 | 0.0 | 0.0 | 0.00 | 0.00 | 0.00 | 92 | 1022.0 |
| 20260830145500 | 66 | 50 | 0.0 | 0.0 | 0.00 | 0.00 | 0.00 | 91 | 1022.1 |
| 20260830145000 | 66 | 50 | 0.0 | 0.0 | 0.00 | 0.00 | 0.00 | 91 | 1022.1 |
| 20260830144501 | 65 | 50 | 0.0 | 0.0 | 0.00 | 0.00 | 0.00 | 90 | 1022.1 |
| 20260830144000 | 65 | 50 | 0.0 | 0.0 | 0.00 | 0.00 | 0.00 | 90 | 1022.2 |
| 20260830143500 | 65 | 50 | 0.0 | 0.0 | 0.00 | 0.00 | 0.00 | 90 | 1022.2 |
| 20260830143001 | 65 | 50 | 0.0 | 0.0 | 0.00 | 0.00 | 0.00 | 91 | 1022.3 |
| 20260830142000 | 64 | 50 | 0.0 | 0.0 | 0.00 | 0.00 | 0.00 | 92 | 1022.3 |
| 20260830141000 | 64 | 236 | 0.0 | 0.0 | 0.00 | 0.00 | 0.00 | 91 | 1022.3 |
| 20260830140500 | 64 | 50 | 0.0 | 0.0 | 0.00 | 0.00 | 0.00 | 91 | 1022.3 |
| 20260830140001 | 63 | 50 | 0.0 | 0.0 | 0.00 | 0.00 | 0.00 | 91 | 1022.3 |
| 20260830135500 | 63 | 50 | 0.0 | 0.0 | 0.00 | 0.00 | 0.00 | 92 | 1022.2 |
| 20260830135000 | 63 | 50 | 0.0 | 0.0 | 0.00 | 0.00 | 0.00 | 92 | 1022.3 |
| 20260830134501 | 63 | 50 | 0.0 | 0.0 | 0.00 | 0.00 | 0.00 | 92 | 1022.3 |
| 20260830134000 | 63 | 50 | 0.0 | 0.0 | 0.00 | 0.00 | 0.00 | 92 | 1022.3 |
| 20260830133500 | 63 | 50 | 0.0 | 0.0 | 0.00 | 0.00 | 0.00 | 93 | 1022.3 |
| 20260830133000 | 62 | 50 | 0.0 | 0.0 | 0.00 | 0.00 | 0.00 | 93 | 1022.4 |
| 20260830132000 | 61 | 50 | 0.0 | 0.0 | 0.00 | 0.00 | 0.00 | 94 | 1022.6 |
| 20260830131501 | 61 | 50 | 0.0 | 2.0 | 0.00 | 0.00 | 0.00 | 95 | 1022.7 |
| 20260830131000 | 61 | 50 | 0.0 | 2.0 | 0.00 | 0.00 | 0.00 | 95 | 1022.7 |
| 20260830130500 | 61 | 50 | 0.0 | 0.0 | 0.00 | 0.00 | 0.00 | 95 | 1022.7 |
| 20260830130001 | 60 | 50 | 0.0 | 0.0 | 0.00 | 0.00 | 0.00 | 96 | 1022.8 |
| 20260830125000 | 60 | 50 | 0.0 | 2.0 | 0.00 | 0.00 | 0.00 | 97 | 1022.7 |
| 20260830124000 | 60 | 50 | 0.0 | 0.0 | 0.00 | 0.00 | 0.00 | 98 | 1022.6 |
| 20260830123001 | 59 | 233 | 0.0 | 0.0 | 0.00 | 0.00 | 0.00 | 97 | 1022.7 |
| 20260830122000 | 59 | 50 | 0.0 | 0.0 | 0.00 | 0.00 | 0.00 | 98 | 1022.7 |
| 20260830121000 | 59 | 50 | 0.0 | 0.0 | 0.00 | 0.00 | 0.00 | 98 | 1022.9 |
| 20260830120500 | 59 | 50 | 0.0 | 0.0 | 0.00 | 0.00 | 0.00 | 98 | 1022.9 |
| 20260830120000 | 59 | 50 | 0.0 | 0.0 | 0.00 | 0.00 | 0.00 | 98 | 1022.9 |
| 20260830115500 | 58 | 50 | 0.0 | 0.0 | 0.00 | 0.00 | 0.00 | 98 | 1023.0 |
| 20260830115000 | 0 | 0.0 | 0.0 | 0.00 | 0.00 | 0.00 | 1022.9 | ||
| 20260830114501 | 0 | 0.0 | 0.0 | 0.00 | 0.00 | 0.00 | 1022.9 | ||
| 20260830114000 | 0 | 0.0 | 0.0 | 0.00 | 0.00 | 0.00 | 1022.9 | ||
| 20260830113500 | 0 | 0.0 | 0.0 | 0.00 | 0.00 | 0.00 | 1022.9 | ||
| 20260830113000 | 0 | 0.0 | 0.0 | 0.00 | 0.00 | 0.00 | 1022.9 | ||
| 20260830112500 | 0 | 0.0 | 0.0 | 0.00 | 0.00 | 0.00 | 1022.9 | ||
| 20260830112000 | 0 | 0.0 | 0.0 | 0.00 | 0.00 | 0.00 | 1023.0 | ||
| 20260830111500 | 0 | 0.0 | 0.0 | 0.00 | 0.00 | 0.00 | 1022.9 | ||
| 20260830111000 | 0 | 0.0 | 0.0 | 0.00 | 0.00 | 0.00 | 1022.9 | ||
| 20260830110500 | 0 | 0.0 | 0.0 | 0.00 | 0.00 | 0.00 | 1022.9 | ||
| 20260830110001 | 0 | 0.0 | 0.0 | 0.00 | 0.00 | 0.00 | 1022.9 | ||
| 20260830105500 | 0 | 0.0 | 0.0 | 0.00 | 0.00 | 0.00 | 1022.9 | ||
| 20260830104500 | 0 | 0.0 | 0.0 | 0.00 | 0.00 | 0.00 | 1022.7 | ||
| 20260830104000 | 0 | 0.0 | 0.0 | 0.00 | 0.00 | 0.00 | 1022.7 | ||
| 20260830103500 | 0 | 0.0 | 0.0 | 0.00 | 0.00 | 0.00 | 1022.7 | ||
| 20260830103000 | 0 | 0.0 | 0.0 | 0.00 | 0.00 | 0.00 | 1022.7 | ||
| 20260830102500 | 0 | 0.0 | 0.0 | 0.00 | 0.00 | 0.00 | 1022.7 | ||
| 20260830102000 | 0 | 0.0 | 0.0 | 0.00 | 0.00 | 0.00 | 1022.8 | ||
| 20260830101501 | 0 | 0.0 | 0.0 | 0.00 | 0.00 | 0.00 | 1022.9 |